TimeIST,TemperatureF,Dew PointF,Humidity,Sea Level PressureIn,VisibilityMPH,Wind Direction,Wind SpeedMPH,Gust SpeedMPH,PrecipitationIn,Events,Conditions,WindDirDegrees,DateUTC
1:00 AM,41,41,100,29.22,,North,11.2,,,,,10,2012-10-16 00:00:00
7:00 AM,40,40,100,29.40,16,WSW,4.5,,,,Partly Cloudy,250,2012-10-16 06:00:00
7:00 AM,41.0,39.2,93,29.36,6.2,WSW,4.6,-,N/A,,Mostly Cloudy,250,2012-10-16 06:00:00
7:30 AM,41.0,41.0,100,29.39,6.2,West,8.1,-,N/A,,Scattered Clouds,260,2012-10-16 06:30:00
8:00 AM,41.0,41.0,100,29.39,6.2,WSW,6.9,-,N/A,,Mostly Cloudy,250,2012-10-16 07:00:00
8:30 AM,41.0,41.0,100,29.42,6.2,West,8.1,-,N/A,,Mostly Cloudy,260,2012-10-16 07:30:00
9:00 AM,41.0,41.0,100,29.42,2.5,WSW,9.2,-,N/A,,Mostly Cloudy,250,2012-10-16 08:00:00
9:30 AM,41.0,41.0,100,29.42,6.2,WSW,6.9,-,N/A,,Mostly Cloudy,240,2012-10-16 08:30:00
10:00 AM,42.8,41.0,93,29.42,6.2,WSW,8.1,-,N/A,,Mostly Cloudy,240,2012-10-16 09:00:00
10:30 AM,42.8,41.0,93,29.44,6.2,SW,6.9,-,N/A,Rain,Light Rain,230,2012-10-16 09:30:00
11:00 AM,42.8,42.8,100,29.44,6.2,SW,8.1,-,N/A,,Mostly Cloudy,220,2012-10-16 10:00:00
11:30 AM,44.6,42.8,93,29.44,6.2,SW,6.9,-,N/A,,Partly Cloudy,220,2012-10-16 10:30:00
12:00 PM,46.4,42.8,87,29.44,6.2,WSW,8.1,-,N/A,,Partly Cloudy,240,2012-10-16 11:00:00
12:30 PM,46.4,41.0,81,29.47,6.2,West,9.2,-,N/A,,Partly Cloudy,270,2012-10-16 11:30:00
1:00 PM,47,42,78,29.49,31,WNW,8.9,,,,Partly Cloudy,290,2012-10-16 12:00:00
1:00 PM,46.4,42.8,87,29.47,6.2,WNW,8.1,-,N/A,,Partly Cloudy,290,2012-10-16 12:00:00
1:30 PM,48.2,42.8,82,29.47,6.2,WSW,5.8,-,N/A,,Scattered Clouds,240,2012-10-16 12:30:00
2:00 PM,50.0,41.0,71,29.47,6.2,WSW,8.1,-,N/A,,Scattered Clouds,250,2012-10-16 13:00:00
2:30 PM,48.2,42.8,82,29.44,6.2,WSW,6.9,-,N/A,,Scattered Clouds,250,2012-10-16 13:30:00
3:00 PM,48.2,41.0,76,29.44,6.2,WSW,8.1,-,N/A,,Partly Cloudy,240,2012-10-16 14:00:00
3:30 PM,50.0,41.0,71,29.44,6.2,SSW,4.6,-,N/A,,Scattered Clouds,210,2012-10-16 14:30:00
4:00 PM,51.8,41.0,67,29.44,6.2,SSW,6.9,-,N/A,,Partly Cloudy,210,2012-10-16 15:00:00
4:30 PM,51.8,41.0,67,29.44,6.2,SW,2.3,-,N/A,,Scattered Clouds,230,2012-10-16 15:30:00
5:00 PM,51.8,39.2,62,29.44,6.2,SW,4.6,-,N/A,,Partly Cloudy,230,2012-10-16 16:00:00
5:30 PM,46.4,42.8,87,29.44,6.2,SSW,3.5,-,N/A,,Partly Cloudy,210,2012-10-16 16:30:00
6:00 PM,46.4,41.0,81,29.44,6.2,South,2.3,-,N/A,,Partly Cloudy,170,2012-10-16 17:00:00
7:00 PM,44,40,81,29.46,22,SE,4.5,,,,Scattered Clouds,140,2012-10-16 18:00:00